Location: Sternwarte_Laufen
(47.9344°N, 12.9346°E)
Time: 04:04:35
(UTC+02:00)

ISS - Pass Details

Date: 10 July 2025
Orbit: 413 x 417 km, 51.6° (Epoch: 12 July)

Event Time Altitude Azimuth Distance (km) Brightness Sun altitude
Rises 22:46:09 0° 252° (WSW) 2,346 0.3 -12.5°
Reaches altitude 10° 22:48:14 10° 254° (WSW) 1,486 -0.7 -12.7°
Maximum altitude 22:51:34 73° 339° (NNW) 438 -3.6 -13.0°
Drops below altitude 10° 22:54:55 10° 66° (ENE) 1,493 -1.0 -13.3°
Sets 22:57:02 0° 68° (ENE) 2,359 -0.1 -13.5°
